User: anonymous   Login
Location: Northam
(31.6525°S, 116.6655°E)
Time: 05:31:26
(UTC+08:00)
Language:

Courier 1B - Orbit

View from above orbital plane
View from above orbital plane
View from above satellite
View from above satellite

Ground track
Ground track

The orbit data is extracted from the following two-line orbital elements,

1    58U 60013A   21163.94083516  .00000084  00000-0 -44234-5 0  9997
2    58  28.3286  65.7751 0165075 173.7888 186.4745 13.46327307987769
Epoch (UTC): 12 June 2021 22:34:48
Eccentricity: 0.0165075
inclination: 28.3286°
perigee height: 962 km
apogee height: 1209 km
right ascension of ascending node: 65.7751°
argument of perigee: 173.7888°
revolutions per day: 13.46327307
mean anomaly at epoch: 186.4745°
orbit number at epoch: 98776

The dashed part of the orbit path shows where the satellite is in the earth's shadow,  

DLR